RH
45 49 36 26 19 13 14 20 21 16 12 26 62 99 91 89 80 71 70 73 80 84 73 68 18 24 100 99 97 72 50 33 29 30 28 31 33 51 46 41 43 41 39 34 26 28 30
29 49 42 29 17 13 19 22 18 12 12 45 86 96 74 88 67 67 69 72 80 78 73 82 36 12 100 100 94 97 69 42 28 29 32 30 72 45 56 46 42 46 42 34 28 28 28
30 37 42 25 14 15 22 19 15 16 39 88 74 90 93 76 63 59 73 77 75 80 80 73 78 60 98 99 98 98 84 60 37 30 34 32 74 62 53 53 49 59 52 36 29 28 30
26 38 49 29 16 19 23 18 17 58 100 100 100 86 77 64 57 77 84 82 87 91 78 84 83 96 98 99 98 97 82 68 52 47 45 45 73 80 73 62 60 56 64 52 34 29 28
29 36 51 29 15 21 22 15 41 84 98 100 98 99 100 52 39 46 58 79 77 82 74 86 94 94 98 71 99 89 62 74 62 62 85 97 80 78 86 73 75 79 70 54 44 36 36
33 39 50 40 16 23 19 14 55 46 89 72 96 100 56 40 39 42 50 69 63 80 78 77 89 98 87 84 98 74 74 94 74 90 99 98 98 89 90 98 87 88 94 53 41 38 40
32 42 48 40 17 24 15 9 25 27 81 100 88 50 34 36 38 41 53 53 61 92 78 84 60 97 70 81 98 72 86 97 86 91 99 97 96 97 90 91 87 72 68 63 47 61 64
32 41 52 41 19 23 8 10 45 73 75 37 28 32 34 71 62 54 58 52 59 73 77 72 65 98 76 87 97 81 72 100 97 95 98 99 99 99 98 90 94 98 90 79 78 77 79
34 35 57 25 22 20 5 36 66 85 81 63 52 58 83 97 96 89 58 59 74 64 75 95 66 97 100 97 94 85 88 94 92 98 96 99 99 96 99 99 100 99 94 86 82 79 77
25 36 58 19 24 12 21 53 78 90 92 96 93 96 95 91 96 95 93 68 65 66 74 87 99 97 99 99 94 96 92 91 96 99 99 99 100 95 100 99 99 100 90 94 82 82 79
27 37 63 21 24 6 41 39 47 75 90 93 94 84 87 89 83 87 86 77 67 68 89 96 98 82 98 97 89 100 100 98 97 96 95 95 94 92 93 98 95 94 86 84 82 77 69
34 38 66 26 23 16 31 36 52 51 88 79 75 82 79 74 74 77 68 68 88 94 96 99 99 99 93 99 84 99 97 93 99 98 98 92 94 99 100 100 98 90 88 86 79 72 76
36 45 71 29 22 26 31 35 47 46 85 68 66 64 68 70 76 66 67 78 94 92 96 96 98 98 97 95 89 95 98 96 95 98 94 98 98 94 94 95 96 93 91 74 71 83 73
38 56 70 31 21 26 34 33 33 32 45 55 58 66 63 71 57 56 82 94 94 97 98 98 98 95 98 95 98 98 99 91 98 94 88 86 99 97 94 86 80 94 87 60 59 80 79
30 60 71 32 23 18 31 36 32 32 44 55 65 72 70 52 60 78 90 95 97 97 98 98 98 91 100 100 98 98 85 80 97 88 75 82 86 95 83 90 83 86 87 73 68 89 91
23 51 65 41 24 11 33 40 38 34 44 55 68 76 82 77 74 89 94 99 100 98 93 88 95 92 96 99 98 95 90 91 96 85 82 77 84 93 89 94 89 80 76 75 66 64 64
26 54 61 58 25 10 35 32 44 43 49 61 64 62 84 85 83 88 97 98 100 97 94 82 75 89 91 96 94 94 93 94 97 85 76 73 73 96 95 97 89 84 83 72 68 64 78
28 56 62 76 23 14 26 28 36 42 46 54 61 72 78 67 69 91 96 99 97 85 77 69 80 72 76 85 88 87 84 71 83 86 76 75 74 97 95 96 92 95 87 75 60 74 83
29 57 63 78 21 21 15 31 36 45 44 50 62 78 82 75 99 81 93 92 86 76 66 63 75 67 68 75 75 76 77 74 87 92 81 75 76 93 100 95 96 96 89 90 76 70 75
36 59 68 78 19 26 11 27 38 49 50 49 57 76 81 84 96 100 99 84 76 78 70 70 71 76 70 73 66 78 74 76 70 87 84 81 77 72 74 72 79 92 82 84 88 90 81
44 58 67 75 53 24 20 13 32 45 45 47 51 50 56 82 99 100 100 98 85 90 86 83 77 71 75 71 69 73 74 75 83 90 92 90 81 77 77 80 88 85 76 79 83 82 73
64 69 74 76 83 21 27 17 9 31 40 42 48 59 58 68 87 100 98 95 86 80 85 83 79 87 78 69 69 72 75 82 86 96 87 89 82 85 75 74 76 73 72 84 79 73 69
74 77 79 80 79 56 25 26 18 5 30 37 42 43 67 75 89 83 81 92 87 83 84 81 82 82 81 86 87 86 85 87 86 87 89 92 93 90 78 81 86 70 57 58 59 54 55
79 80 80 78 89 77 27 28 26 19 4 36 41 42 43 69 80 78 76 83 90 86 80 90 93 96 97 93 93 96 96 96 94 87 95 92 96 93 86 83 96 70 78 76 72 77 81
85 83 87 84 84 70 82 23 28 26 20 4 38 52 44 48 78 82 84 87 84 79 90 91 90 97 94 96 99 100 99 99 99 96 94 98 92 87 91 97 70 62 82 77 77 83 83
89 88 90 84 85 87 58 58 24 29 26 21 5 37 64 52 71 79 82 88 87 79 89 80 76 77 82 90 96 93 98 93 98 95 93 91 91 91 96 88 95 88 91 83 83 84 88
92 91 91 86 90 96 50 84 31 25 28 26 21 7 20 62 57 75 80 88 95 90 82 75 71 83 89 97 100 99 94 98 94 91 96 97 97 93 78 83 75 79 91 90 94 91 86
92 95 91 89 94 96 66 58 64 47 26 27 24 17 9 13 62 63 74 72 91 93 90 82 79 80 97 99 98 98 96 95 96 90 88 85 85 89 87 87 86 78 91 99 99 100 86
90 95 92 91 94 96 92 76 19 25 48 28 26 18 13 11 40 90 81 78 89 94 89 90 92 97 95 92 93 95 96 97 98 94 98 94 86 82 80 72 92 98 99 100 97 98 92
Wind_Speed
35 35 35 35 37 39 39 42 45 45 46 39 29 24 25 26 25 27 27 27 28 27 26 30 27 39 36 36 31 8 7 24 29 30 30 31 33 34 36 37 37 39 37 35 32 33 36
39 38 37 37 39 40 42 44 47 48 43 31 26 24 24 25 24 23 23 22 19 19 20 24 24 39 27 40 29 26 15 18 28 30 30 32 29 33 30 31 35 30 37 33 32 35 36
40 41 39 40 40 44 46 47 49 47 33 24 23 22 23 22 21 18 15 13 14 13 17 17 19 40 32 34 19 25 23 15 26 26 29 30 27 26 24 27 27 30 19 29 35 32 30
43 42 41 42 44 45 48 49 50 36 25 23 22 24 26 22 18 15 16 15 13 15 15 11 14 40 37 43 21 25 24 18 25 27 26 26 27 23 19 18 19 20 27 19 25 33 32
43 44 42 42 44 49 50 51 44 31 26 23 23 23 21 17 15 15 15 13 17 18 9 14 13 41 23 47 25 24 25 19 26 26 26 26 24 25 22 20 14 20 12 31 27 19 21
43 48 47 45 46 49 52 51 37 35 29 24 22 21 19 17 15 15 13 15 20 8 7 12 13 27 28 39 23 26 25 24 29 28 27 28 28 27 29 23 19 17 17 14 23 23 24
44 49 51 46 47 51 53 49 38 35 29 26 22 18 18 17 16 16 14 17 19 6 8 9 16 19 29 33 26 27 29 24 28 30 30 29 34 34 32 26 12 13 14 17 14 19 20
42 49 48 46 46 52 54 40 36 35 30 27 22 18 18 21 15 14 15 16 16 4 8 16 27 13 24 26 32 27 32 25 24 33 33 27 35 30 28 25 20 11 14 12 11 14 19
43 50 47 44 47 51 48 38 38 35 31 26 22 23 23 22 17 12 13 11 6 1 10 21 35 20 21 25 35 31 30 29 21 19 29 16 11 20 27 28 25 18 16 13 13 14 19
44 49 45 45 48 54 43 41 39 36 30 26 24 24 23 24 11 4 8 6 1 5 11 13 21 19 26 26 31 25 26 21 21 19 11 11 11 13 17 18 22 19 15 15 13 10 5
43 48 44 45 48 49 43 44 40 28 29 27 25 22 19 14 9 5 0 4 7 15 4 13 16 20 16 22 31 26 27 16 19 25 16 8 10 10 10 5 8 7 9 9 8 8 10
42 46 42 43 46 42 41 39 29 28 28 27 26 21 19 17 13 11 9 13 14 3 4 6 10 21 22 12 35 30 23 18 16 13 9 9 11 9 10 11 11 5 7 5 9 8 2
40 44 40 41 43 37 38 34 25 24 24 24 24 22 26 24 22 21 17 12 2 5 10 16 21 30 22 28 28 29 20 19 9 16 14 11 15 9 10 14 14 14 9 2 2 1 3
39 41 36 38 40 34 35 30 24 23 26 27 28 25 28 27 20 14 9 5 8 8 9 18 32 26 24 26 25 23 19 22 11 9 18 10 6 14 10 11 9 14 11 5 4 1 3
36 40 36 33 36 30 28 29 22 21 21 25 27 20 24 17 15 13 12 16 9 10 15 31 27 27 24 21 20 16 20 17 14 12 6 8 4 13 9 11 11 10 9 9 3 1 1
34 39 36 30 32 28 24 23 22 19 19 20 21 19 18 17 15 19 27 29 28 27 34 26 16 15 16 13 20 15 18 18 13 11 14 8 6 10 10 10 11 7 8 5 5 2 2
32 36 33 27 28 27 21 20 16 15 14 13 14 19 17 14 15 24 25 28 32 28 16 10 10 21 16 16 18 18 14 11 14 14 10 10 5 9 10 11 14 13 10 4 5 2 3
31 33 32 24 25 25 18 16 14 11 10 12 16 15 16 17 16 23 25 22 23 15 14 10 9 21 20 20 18 15 15 4 20 15 10 11 5 7 9 7 8 13 12 10 3 4 4
29 31 31 20 23 22 16 13 13 10 8 9 12 13 11 12 17 20 20 19 16 13 10 7 9 10 13 18 8 19 15 15 16 17 10 10 3 6 5 7 10 13 17 17 13 4 7
29 29 30 21 21 20 18 11 11 8 10 10 8 7 13 13 18 15 14 12 10 7 6 5 9 9 15 13 4 19 13 13 10 21 13 7 5 3 5 0 3 9 14 17 18 8 8
29 29 27 25 19 20 17 12 12 9 10 9 5 5 7 6 10 11 9 4 6 5 4 6 9 8 14 9 6 10 11 11 11 18 20 12 3 7 10 8 7 5 7 12 22 24 14
30 29 25 25 20 19 17 14 13 14 11 9 8 7 3 3 7 8 8 9 6 5 4 7 13 13 11 7 7 6 13 11 10 12 13 13 6 5 6 9 13 17 16 15 15 19 25
29 30 25 21 21 20 19 15 14 13 14 12 8 6 4 3 7 6 6 5 11 13 13 12 11 9 6 4 3 9 11 8 4 7 14 9 7 4 2 4 7 12 9 15 21 20 17
29 30 28 20 20 23 20 17 15 14 12 15 12 11 9 7 11 8 6 6 7 1 6 5 7 8 5 9 9 9 7 9 10 5 11 7 7 4 4 3 1 2 3 2 3 4 9
30 32 30 25 19 23 22 19 16 16 15 12 15 13 13 12 13 11 10 8 6 3 6 5 5 5 4 6 7 5 5 4 6 4 7 12 11 3 2 4 11 6 6 3 2 2 2
32 32 31 27 20 22 21 18 18 15 17 15 14 17 16 15 18 16 14 11 8 6 9 8 6 6 6 7 5 3 3 4 6 6 9 10 9 7 3 2 4 4 8 4 6 5 7
34 34 31 27 20 21 20 20 19 18 17 19 17 16 20 23 22 22 21 16 13 11 9 10 10 8 8 8 5 3 3 4 4 7 11 13 11 14 10 6 9 9 6 3 2 2 9
35 33 29 25 19 20 20 19 20 23 22 21 22 21 20 25 23 27 25 20 18 14 10 7 7 10 7 6 3 3 5 8 5 6 5 9 10 8 12 6 9 9 10 4 1 4 6
33 29 26 24 20 20 21 18 22 23 29 28 28 28 25 27 23 28 29 27 22 18 13 10 7 2 5 6 7 4 5 5 8 5 11 8 10 4 10 4 4 11 2 4 5 5 5
Wind_Direction
340 335 333 330 327 324 323 323 322 323 321 314 312 309 303 301 303 301 297 292 286 285 279 264 225 209 212 223 226 202 215 211 210 208 205 205 207 208 212 214 218 224 228 228 229 231 239
345 339 335 332 328 326 326 327 325 324 321 312 312 307 304 309 310 307 302 302 300 290 275 268 224 201 217 222 235 209 217 199 211 208 200 203 207 210 215 217 221 230 232 234 234 237 241
346 343 338 333 331 330 330 331 328 327 326 317 316 317 311 312 311 312 312 308 302 288 282 275 222 193 212 212 226 197 201 205 206 203 202 201 207 209 213 217 222 223 236 234 236 238 245
347 345 341 337 334 333 332 334 333 331 328 324 317 309 309 306 302 304 309 314 307 302 280 239 235 190 212 209 209 191 193 206 196 189 197 201 200 202 213 207 217 219 227 230 236 239 242
347 345 341 338 337 335 336 338 334 329 321 316 318 313 320 305 298 300 301 315 320 305 261 235 217 194 211 200 203 183 181 196 182 179 185 192 194 201 204 201 195 206 224 227 238 245 240
345 349 342 340 340 338 337 341 333 330 320 316 316 314 316 315 307 299 306 313 328 297 215 232 213 195 203 207 217 172 174 182 175 174 184 184 187 196 199 188 196 194 207 223 232 241 242
344 348 345 341 340 340 340 343 337 334 326 323 321 322 324 322 315 296 292 319 330 291 224 210 190 180 200 197 191 172 173 175 176 180 183 194 188 199 201 190 197 211 213 220 231 235 255
341 344 344 340 343 342 343 347 341 334 333 328 324 320 320 309 313 305 295 313 319 294 195 171 171 149 194 188 166 169 178 180 175 188 194 181 197 201 205 196 199 201 204 221 239 249 264
343 343 344 341 345 344 349 350 343 345 340 335 327 321 310 299 296 290 291 314 310 227 168 163 176 189 179 186 169 169 176 185 184 190 198 206 160 183 201 191 198 204 215 223 244 261 272
344 344 345 342 348 349 355 350 346 346 347 346 342 334 325 322 301 303 291 303 241 141 135 154 157 183 161 162 160 167 169 179 183 185 190 204 209 212 170 186 193 204 228 235 256 280 279
345 344 344 345 351 356 355 352 353 1 3 357 355 356 349 349 332 319 360 136 130 121 81 145 139 187 177 137 156 164 161 168 186 177 173 153 175 203 215 211 195 198 199 222 260 280 288
345 344 344 347 352 359 357 359 7 12 11 12 16 18 23 29 50 75 96 117 141 67 89 122 150 140 163 129 164 160 164 164 167 190 173 139 151 173 180 168 174 198 212 254 276 275 263
344 343 345 348 354 359 1 1 13 21 27 30 36 39 47 51 61 69 88 117 21 57 97 148 147 140 135 151 161 165 161 169 158 143 152 142 161 162 182 185 196 216 219 290 345 78 218
342 344 345 348 355 0 2 3 25 36 50 51 53 54 60 53 65 79 74 37 56 63 110 134 139 136 119 150 154 168 162 162 165 162 152 160 165 191 190 195 192 189 199 203 193 137 276
339 342 344 347 354 2 360 3 23 47 54 56 56 52 65 65 52 34 50 46 33 82 115 133 134 134 136 148 159 174 168 180 169 177 180 155 123 180 187 209 192 191 206 203 110 110 339
336 342 344 343 352 360 357 4 12 47 56 58 57 42 35 39 48 70 82 78 83 104 120 140 120 157 165 123 164 160 173 189 182 186 194 168 131 188 197 199 200 206 179 165 193 104 272
335 339 343 336 348 355 355 355 7 33 51 50 49 37 30 49 71 104 96 105 116 129 130 134 139 155 164 151 170 164 166 188 184 198 203 189 172 166 191 212 210 197 197 169 160 166 165
333 337 340 328 342 349 350 353 355 17 42 38 32 52 72 74 92 107 118 112 121 115 134 102 136 171 170 174 171 173 182 224 199 203 197 177 168 155 190 217 217 225 236 214 200 185 214
328 336 337 324 335 344 345 345 341 10 30 23 35 62 68 71 84 98 117 123 124 142 133 97 142 159 173 180 176 193 201 207 197 195 187 194 167 134 193 236 232 221 222 217 219 171 225
324 334 332 320 330 339 344 328 325 340 4 17 32 69 63 64 91 89 105 144 146 163 178 156 150 155 155 166 179 195 196 206 226 201 197 210 221 217 189 240 199 206 220 223 221 206 231
321 330 330 322 310 327 335 327 300 300 325 357 2 336 328 77 79 78 84 122 160 153 162 163 174 186 192 182 185 189 197 197 173 193 214 217 249 252 252 268 270 266 241 233 231 234 238
320 326 332 321 288 316 326 331 323 290 296 321 339 342 7 85 92 95 99 88 98 115 148 165 159 160 181 188 212 221 195 191 182 195 201 208 244 295 286 263 268 267 255 250 245 241 255
319 321 329 319 287 291 313 321 329 309 277 278 299 321 317 201 158 139 128 103 112 107 107 112 146 172 190 180 200 150 185 201 201 209 193 196 228 317 285 286 288 285 266 247 248 256 266
316 317 322 316 281 277 299 312 323 325 299 269 262 278 286 260 197 189 171 170 161 192 158 132 144 140 112 127 129 135 171 196 222 221 205 215 231 278 289 294 307 158 210 203 164 218 263
313 313 315 313 285 277 272 300 313 320 319 295 259 252 260 251 223 203 189 175 193 213 177 177 168 183 170 158 151 144 136 169 197 175 194 219 235 256 295 285 286 277 199 176 295 2 65
310 309 310 310 295 271 271 277 298 304 307 306 292 251 241 243 227 224 216 206 208 210 209 217 222 232 221 203 184 189 194 187 179 193 207 213 226 206 198 267 247 199 179 226 301 172 339
307 306 308 308 289 274 274 261 289 294 295 297 297 287 249 237 229 223 226 219 210 214 228 238 242 227 216 208 216 187 204 200 187 183 204 208 217 224 227 249 279 204 198 249 215 305 326
302 302 304 307 285 276 271 273 278 290 292 292 290 286 271 247 228 223 220 221 213 216 222 227 235 232 219 198 204 212 212 204 222 216 232 206 201 215 215 229 258 168 209 233 268 316 335
298 298 300 299 282 278 275 278 282 281 286 288 287 284 271 255 226 222 215 210 211 214 212 219 221 208 220 202 218 225 222 219 217 235 228 231 217 213 208 232 165 169 280 250 293 280 316